Year,Month,Day,Hour,Minute,Value (Times are PST for temperature in C)
2011,07,12,00,02,14.80
2011,07,12,00,03,14.80
2011,07,12,00,04,14.80
2011,07,12,00,05,14.80
2011,07,12,00,06,14.70
2011,07,12,00,07,14.70
2011,07,12,00,08,14.70
2011,07,12,00,09,14.70
2011,07,12,00,10,14.70
2011,07,12,00,12,14.70
2011,07,12,00,13,14.60
2011,07,12,00,14,14.60
2011,07,12,00,15,14.60
2011,07,12,00,17,14.60
2011,07,12,00,18,14.60
2011,07,12,00,19,14.60
2011,07,12,00,20,14.60
2011,07,12,00,21,14.60
2011,07,12,00,23,14.60
2011,07,12,00,24,14.50
2011,07,12,00,25,14.50
2011,07,12,00,26,14.50
2011,07,12,00,27,14.50
2011,07,12,00,28,14.50
2011,07,12,00,29,14.50
2011,07,12,00,30,14.50
2011,07,12,00,32,14.40
2011,07,12,00,33,14.40
2011,07,12,00,34,14.40
2011,07,12,00,36,14.40
2011,07,12,00,37,14.40
2011,07,12,00,38,14.40
2011,07,12,00,40,14.40
2011,07,12,00,41,14.40
2011,07,12,00,42,14.40
2011,07,12,00,43,14.30
2011,07,12,00,45,14.30
2011,07,12,00,46,14.30
2011,07,12,00,47,14.30
2011,07,12,00,48,14.30
2011,07,12,00,50,14.20
2011,07,12,00,51,14.20
2011,07,12,00,52,14.20
2011,07,12,00,53,14.20
2011,07,12,00,55,14.20
2011,07,12,00,56,14.20
2011,07,12,00,57,14.20
2011,07,12,00,58,14.10
2011,07,12,01,00,14.10
2011,07,12,01,01,14.10
2011,07,12,01,02,14.10
2011,07,12,01,03,14.10
2011,07,12,01,04,14.10
2011,07,12,01,05,14.10
2011,07,12,01,06,14.10
2011,07,12,01,07,14.10
2011,07,12,01,08,14.00
2011,07,12,01,10,14.00
2011,07,12,01,11,14.00
2011,07,12,01,12,13.90
2011,07,12,01,13,13.90
2011,07,12,01,15,13.90
2011,07,12,01,17,13.90
2011,07,12,01,18,13.90
2011,07,12,01,20,13.90
2011,07,12,01,21,13.90
2011,07,12,01,22,13.90
2011,07,12,01,25,13.90
2011,07,12,01,26,13.90
2011,07,12,01,27,13.90
2011,07,12,01,28,13.90
2011,07,12,01,30,13.90
2011,07,12,01,31,13.90
2011,07,12,01,32,13.90
2011,07,12,01,33,13.90
2011,07,12,01,35,13.90
2011,07,12,01,36,13.90
2011,07,12,01,37,13.90
2011,07,12,01,38,13.90
2011,07,12,01,40,13.90
2011,07,12,01,41,13.90
2011,07,12,01,42,13.90
2011,07,12,01,43,13.90
2011,07,12,01,45,13.90
2011,07,12,01,46,13.90
2011,07,12,01,47,13.90
2011,07,12,01,48,13.90
2011,07,12,01,49,13.90
2011,07,12,01,50,13.90
2011,07,12,01,51,13.90
2011,07,12,01,52,13.90
2011,07,12,01,54,13.90
2011,07,12,01,55,13.80
2011,07,12,01,56,13.80
2011,07,12,01,58,13.80
2011,07,12,01,59,13.80
2011,07,12,02,00,13.80
2011,07,12,02,01,13.80
2011,07,12,02,02,13.80
2011,07,12,02,03,13.80
2011,07,12,02,04,13.80
2011,07,12,02,05,13.80
2011,07,12,02,07,13.80
2011,07,12,02,08,13.80
2011,07,12,02,09,13.80
2011,07,12,02,11,13.80
2011,07,12,02,12,13.80
2011,07,12,02,13,13.80
2011,07,12,02,14,13.80
2011,07,12,02,15,13.80
2011,07,12,02,17,13.80
2011,07,12,02,18,13.80
2011,07,12,02,19,13.80
2011,07,12,02,20,13.80
2011,07,12,02,22,13.80
2011,07,12,02,23,13.80
2011,07,12,02,24,13.80
2011,07,12,02,25,13.80
2011,07,12,02,27,13.80
2011,07,12,02,28,13.80
2011,07,12,02,29,13.80
2011,07,12,02,30,13.80
2011,07,12,02,31,13.80
2011,07,12,02,32,13.80
2011,07,12,02,33,13.80
2011,07,12,02,34,13.80
2011,07,12,02,35,13.80
2011,07,12,02,36,13.80
2011,07,12,02,37,13.80
2011,07,12,02,38,13.80
2011,07,12,02,39,13.80
2011,07,12,02,40,13.80
2011,07,12,02,41,13.80
2011,07,12,02,42,13.80
2011,07,12,02,43,13.80
2011,07,12,02,44,13.80
2011,07,12,02,45,13.80
2011,07,12,02,47,13.80
2011,07,12,02,48,13.80
2011,07,12,02,49,13.80
2011,07,12,02,50,13.80
2011,07,12,02,52,13.80
2011,07,12,02,53,13.80
2011,07,12,02,54,13.80
2011,07,12,02,55,13.80
2011,07,12,02,57,13.80
2011,07,12,02,58,13.80
2011,07,12,02,59,13.80
2011,07,12,03,00,13.80
2011,07,12,03,02,13.80
2011,07,12,03,03,13.90
2011,07,12,03,04,13.90
2011,07,12,03,05,13.90
2011,07,12,03,07,13.90
2011,07,12,03,08,13.90
2011,07,12,03,09,13.90
2011,07,12,03,10,13.90
2011,07,12,03,11,13.90
2011,07,12,03,12,13.90
2011,07,12,03,13,13.90
2011,07,12,03,14,13.90
2011,07,12,03,15,13.90
2011,07,12,03,16,13.90
2011,07,12,03,17,13.90
2011,07,12,03,18,13.90
2011,07,12,03,19,13.90
2011,07,12,03,20,13.90
2011,07,12,03,22,13.90
2011,07,12,03,23,13.90
2011,07,12,03,24,13.90
2011,07,12,03,25,13.90
2011,07,12,03,27,13.90
2011,07,12,03,28,13.90
2011,07,12,03,29,13.90
2011,07,12,03,30,13.90
2011,07,12,03,32,13.90
2011,07,12,03,33,13.90
2011,07,12,03,34,13.90
2011,07,12,03,35,13.90
2011,07,12,03,36,13.90
2011,07,12,03,37,13.90
2011,07,12,03,38,13.90
2011,07,12,03,39,13.90
2011,07,12,03,40,13.90
2011,07,12,03,41,13.90
2011,07,12,03,43,13.90
2011,07,12,03,44,13.90
2011,07,12,03,45,13.90
2011,07,12,03,46,13.90
2011,07,12,03,47,13.90
2011,07,12,03,49,13.90
2011,07,12,03,50,13.90
2011,07,12,03,51,13.80
2011,07,12,03,52,13.90
2011,07,12,03,54,13.80
2011,07,12,03,55,13.80
2011,07,12,03,56,13.80
2011,07,12,03,57,13.80
2011,07,12,03,59,13.80
2011,07,12,04,00,13.80
2011,07,12,04,01,13.80
2011,07,12,04,02,13.80
2011,07,12,04,04,13.80
2011,07,12,04,05,13.80
2011,07,12,04,06,13.80
2011,07,12,04,07,13.70
2011,07,12,04,09,13.70
2011,07,12,04,10,13.70
2011,07,12,04,11,13.70
2011,07,12,04,12,13.70
2011,07,12,04,14,13.70
2011,07,12,04,15,13.70
2011,07,12,04,16,13.70
2011,07,12,04,17,13.70
2011,07,12,04,18,13.70
2011,07,12,04,19,13.70
2011,07,12,04,20,13.70
2011,07,12,04,21,13.70
2011,07,12,04,23,13.70
2011,07,12,04,24,13.60
2011,07,12,04,25,13.60
2011,07,12,04,26,13.60
2011,07,12,04,28,13.60
2011,07,12,04,29,13.60
2011,07,12,04,30,13.60
2011,07,12,04,31,13.60
2011,07,12,04,32,13.60
2011,07,12,04,33,13.60
2011,07,12,04,34,13.60
2011,07,12,04,35,13.60
2011,07,12,04,36,13.60
2011,07,12,04,37,13.50
2011,07,12,04,38,13.50
2011,07,12,04,39,13.50
2011,07,12,04,40,13.50
2011,07,12,04,41,13.50
2011,07,12,04,43,13.50
2011,07,12,04,44,13.50
2011,07,12,04,45,13.50
2011,07,12,04,46,13.50
2011,07,12,04,48,13.50
2011,07,12,04,49,13.50
2011,07,12,04,50,13.50
2011,07,12,04,51,13.50
2011,07,12,04,53,13.50
2011,07,12,04,54,13.50
2011,07,12,04,55,13.50
2011,07,12,04,56,13.50
2011,07,12,04,57,13.50
2011,07,12,04,58,13.50
2011,07,12,04,59,13.50
2011,07,12,05,00,13.50
2011,07,12,05,02,13.50
2011,07,12,05,03,13.50
2011,07,12,05,04,13.60
2011,07,12,05,05,13.50
2011,07,12,05,07,13.60
2011,07,12,05,08,13.60
2011,07,12,05,09,13.50
2011,07,12,05,10,13.50
2011,07,12,05,11,13.50
2011,07,12,05,13,13.50
2011,07,12,05,14,13.60
2011,07,12,05,15,13.50
2011,07,12,05,17,13.50
2011,07,12,05,18,13.50
2011,07,12,05,19,13.50
2011,07,12,05,20,13.50
2011,07,12,05,22,13.50
2011,07,12,05,23,13.50
2011,07,12,05,24,13.50
2011,07,12,05,25,13.50
2011,07,12,05,26,13.50
2011,07,12,05,27,13.40
2011,07,12,05,28,13.40
2011,07,12,05,29,13.40
2011,07,12,05,30,13.40
2011,07,12,05,31,13.40
2011,07,12,05,32,13.40
2011,07,12,05,34,13.40
2011,07,12,05,35,13.40
2011,07,12,05,36,13.40
2011,07,12,05,37,13.40
2011,07,12,05,39,13.40
2011,07,12,05,40,13.40
2011,07,12,05,41,13.40
2011,07,12,05,42,13.40
2011,07,12,05,44,13.40
2011,07,12,05,45,13.40
2011,07,12,05,46,13.40
2011,07,12,05,47,13.40
2011,07,12,05,48,13.30
2011,07,12,05,50,13.40
2011,07,12,05,51,13.30
2011,07,12,05,52,13.30
2011,07,12,05,53,13.30
2011,07,12,05,55,13.30
2011,07,12,05,56,13.30
2011,07,12,05,57,13.30
2011,07,12,05,58,13.30
2011,07,12,05,59,13.30
2011,07,12,06,00,13.30
2011,07,12,06,01,13.30
2011,07,12,06,02,13.40
2011,07,12,06,03,13.40
2011,07,12,06,04,13.30
2011,07,12,06,05,13.30
2011,07,12,06,06,13.40
2011,07,12,06,07,13.40
2011,07,12,06,08,13.40
2011,07,12,06,10,13.40
2011,07,12,06,11,13.40
2011,07,12,06,12,13.40
2011,07,12,06,13,13.40
2011,07,12,06,14,13.40
2011,07,12,06,15,13.40
2011,07,12,06,16,13.40
2011,07,12,06,17,13.40
2011,07,12,06,18,13.40
2011,07,12,06,20,13.40
2011,07,12,06,21,13.40
2011,07,12,06,22,13.40
2011,07,12,06,24,13.40
2011,07,12,06,25,13.40
2011,07,12,06,26,13.40
2011,07,12,06,27,13.40
2011,07,12,06,28,13.40
2011,07,12,06,30,13.40
2011,07,12,06,31,13.40
2011,07,12,06,32,13.40
2011,07,12,06,33,13.40
2011,07,12,06,35,13.40
2011,07,12,06,36,13.50
2011,07,12,06,37,13.50
2011,07,12,06,38,13.50
2011,07,12,06,40,13.60
2011,07,12,06,41,13.60
2011,07,12,06,42,13.60
2011,07,12,06,44,13.60
2011,07,12,06,45,13.60
2011,07,12,06,46,13.60
2011,07,12,06,48,13.60
2011,07,12,06,49,13.60
2011,07,12,06,50,13.60
2011,07,12,06,51,13.60
2011,07,12,06,53,13.60
2011,07,12,06,54,13.60
2011,07,12,06,55,13.60
2011,07,12,06,56,13.50
2011,07,12,06,58,13.50
2011,07,12,06,59,13.50
2011,07,12,07,00,13.40
2011,07,12,07,02,13.40
2011,07,12,07,03,13.40
2011,07,12,07,04,13.40
2011,07,12,07,05,13.30
2011,07,12,07,07,13.30
2011,07,12,07,08,13.30
2011,07,12,07,09,13.20
2011,07,12,07,10,13.20
2011,07,12,07,11,13.20
2011,07,12,07,13,13.10
2011,07,12,07,14,13.10
2011,07,12,07,15,13.00
2011,07,12,07,16,13.00
2011,07,12,07,18,12.90
2011,07,12,07,19,12.90
2011,07,12,07,20,12.90
2011,07,12,07,21,12.90
2011,07,12,07,23,12.90
2011,07,12,07,24,12.80
2011,07,12,07,25,12.80
2011,07,12,07,26,12.80
2011,07,12,07,28,12.80
2011,07,12,07,29,12.70
2011,07,12,07,30,12.70
2011,07,12,07,31,12.70
2011,07,12,07,33,12.70
2011,07,12,07,34,12.70
2011,07,12,07,35,12.70
2011,07,12,07,36,12.70
2011,07,12,07,38,12.70
2011,07,12,07,39,12.70
2011,07,12,07,40,12.70
2011,07,12,07,41,12.70
2011,07,12,07,43,12.70
2011,07,12,07,44,12.80
2011,07,12,07,45,12.80
2011,07,12,07,46,12.80
2011,07,12,07,48,12.80
2011,07,12,07,49,12.80
2011,07,12,07,50,12.90
2011,07,12,07,52,12.90
2011,07,12,07,53,12.90
2011,07,12,07,54,13.00
2011,07,12,07,56,13.00
2011,07,12,07,57,13.10
2011,07,12,07,58,13.10
2011,07,12,07,59,13.20
2011,07,12,08,00,13.20
2011,07,12,08,01,13.20
2011,07,12,08,03,13.30
2011,07,12,08,04,13.30
2011,07,12,08,05,13.40
2011,07,12,08,07,13.40
2011,07,12,08,08,13.40
2011,07,12,08,09,13.60
2011,07,12,08,10,13.60
2011,07,12,08,11,13.60
2011,07,12,08,12,13.60
2011,07,12,08,14,13.60
2011,07,12,08,15,13.60
2011,07,12,08,16,13.60
2011,07,12,08,17,13.60
2011,07,12,08,19,13.60
2011,07,12,08,20,13.70
2011,07,12,08,21,13.70
2011,07,12,08,22,13.80
2011,07,12,08,24,13.80
2011,07,12,08,25,13.80
2011,07,12,08,26,13.80
2011,07,12,08,27,13.90
2011,07,12,08,29,13.90
2011,07,12,08,30,14.00
2011,07,12,08,31,14.00
2011,07,12,08,32,14.00
2011,07,12,08,33,14.00
2011,07,12,08,34,14.10
2011,07,12,08,35,14.10
2011,07,12,08,36,14.20
2011,07,12,08,37,14.20
2011,07,12,08,38,14.20
2011,07,12,08,39,14.20
2011,07,12,08,40,14.30
2011,07,12,08,41,14.30
2011,07,12,08,42,14.30
2011,07,12,08,43,14.30
2011,07,12,08,44,14.30
2011,07,12,08,45,14.30
2011,07,12,08,46,14.30
2011,07,12,08,47,14.40
2011,07,12,08,48,14.40
2011,07,12,08,49,14.40
2011,07,12,08,50,14.40
2011,07,12,08,51,14.50
2011,07,12,08,52,14.60
2011,07,12,08,53,14.60
2011,07,12,08,54,14.60
2011,07,12,08,55,14.70
2011,07,12,08,56,14.80
2011,07,12,08,57,14.80
2011,07,12,08,58,14.90
2011,07,12,08,59,14.90
2011,07,12,09,00,14.90
2011,07,12,09,01,15.00
2011,07,12,09,02,15.00
2011,07,12,09,03,15.00
2011,07,12,09,04,15.10
2011,07,12,09,05,15.20
2011,07,12,09,06,15.30
2011,07,12,09,07,15.30
2011,07,12,09,08,15.30
2011,07,12,09,09,15.40
2011,07,12,09,10,15.40
2011,07,12,09,11,15.40
2011,07,12,09,12,15.40
2011,07,12,09,13,15.50
2011,07,12,09,14,15.50
2011,07,12,09,15,15.60
2011,07,12,09,16,15.70
2011,07,12,09,17,15.80
2011,07,12,09,18,15.80
2011,07,12,09,19,15.90
2011,07,12,09,20,15.90
2011,07,12,09,21,16.10
2011,07,12,09,22,16.10
2011,07,12,09,23,16.20
2011,07,12,09,24,16.30
2011,07,12,09,25,16.40
2011,07,12,09,26,16.40
2011,07,12,09,27,16.50
2011,07,12,09,28,16.60
2011,07,12,09,29,16.70
2011,07,12,09,30,16.70
2011,07,12,09,31,16.60
2011,07,12,09,32,16.50
2011,07,12,09,34,16.50
2011,07,12,09,35,16.40
2011,07,12,09,36,16.40
2011,07,12,09,37,16.30
2011,07,12,09,38,16.30
2011,07,12,09,40,16.30
2011,07,12,09,41,16.40
2011,07,12,09,42,16.40
2011,07,12,09,43,16.40
2011,07,12,09,45,16.50
2011,07,12,09,46,16.60
2011,07,12,09,47,16.60
2011,07,12,09,48,16.60
2011,07,12,09,50,16.60
2011,07,12,09,51,16.70
2011,07,12,09,52,16.70
2011,07,12,09,53,16.70
2011,07,12,09,55,16.80
2011,07,12,09,56,16.90
2011,07,12,09,57,16.90
2011,07,12,09,58,16.90
2011,07,12,09,59,16.90
2011,07,12,10,00,16.90
2011,07,12,10,01,16.80
2011,07,12,10,02,16.70
2011,07,12,10,03,16.70
2011,07,12,10,05,16.70
2011,07,12,10,06,16.80
2011,07,12,10,07,16.80
2011,07,12,10,08,16.80
2011,07,12,10,10,16.90
2011,07,12,10,11,16.90
2011,07,12,10,12,16.90
2011,07,12,10,13,16.90
2011,07,12,10,15,17.00
2011,07,12,10,16,17.10
2011,07,12,10,17,17.10
2011,07,12,10,18,17.10
2011,07,12,10,19,17.10
2011,07,12,10,20,17.10
2011,07,12,10,21,17.10
2011,07,12,10,23,17.20
2011,07,12,10,24,17.20
2011,07,12,10,25,17.20
2011,07,12,10,26,17.20
2011,07,12,10,28,17.30
2011,07,12,10,29,17.40
2011,07,12,10,30,17.40
2011,07,12,10,31,17.50
2011,07,12,10,33,17.60
2011,07,12,10,34,17.80
2011,07,12,10,35,17.90
2011,07,12,10,36,18.10
2011,07,12,10,37,18.20
2011,07,12,10,39,18.30
2011,07,12,10,40,18.40
2011,07,12,10,41,18.60
2011,07,12,10,42,18.70
2011,07,12,10,44,18.70
2011,07,12,10,45,18.80
2011,07,12,10,46,18.70
2011,07,12,10,48,18.70
2011,07,12,10,49,18.70
2011,07,12,10,50,18.60
2011,07,12,10,51,18.70
2011,07,12,10,53,18.70
2011,07,12,10,54,18.80
2011,07,12,10,55,18.80
2011,07,12,10,56,18.80
2011,07,12,10,58,18.80
2011,07,12,10,59,18.70
2011,07,12,11,00,18.70
2011,07,12,11,01,18.60
2011,07,12,11,03,18.50
2011,07,12,11,04,18.50
2011,07,12,11,05,18.40
2011,07,12,11,06,18.40
2011,07,12,11,08,18.40
2011,07,12,11,09,18.50
2011,07,12,11,10,18.60
2011,07,12,11,11,18.60
2011,07,12,11,13,18.60
2011,07,12,11,14,18.60
2011,07,12,11,15,18.70
2011,07,12,11,16,18.60
2011,07,12,11,18,18.50
2011,07,12,11,19,18.40
2011,07,12,11,20,18.30
2011,07,12,11,21,18.30
2011,07,12,11,22,18.30
2011,07,12,11,24,18.20
2011,07,12,11,25,18.20
2011,07,12,11,26,18.20
2011,07,12,11,27,18.10
2011,07,12,11,28,18.10
2011,07,12,11,29,18.10
2011,07,12,11,30,18.10
2011,07,12,11,31,18.00
2011,07,12,11,32,17.90
2011,07,12,11,34,17.90
2011,07,12,11,35,17.90
2011,07,12,11,36,17.80
2011,07,12,11,38,17.80
2011,07,12,11,39,17.80
2011,07,12,11,40,17.70
2011,07,12,11,41,17.70
2011,07,12,11,43,17.60
2011,07,12,11,44,17.40
2011,07,12,11,45,17.40
2011,07,12,11,46,17.40
2011,07,12,11,48,17.50
2011,07,12,11,49,17.50
2011,07,12,11,50,17.50
2011,07,12,11,51,17.60
2011,07,12,11,53,17.70
2011,07,12,11,54,17.80
2011,07,12,11,55,17.90
2011,07,12,11,57,18.10
2011,07,12,11,58,18.30
2011,07,12,11,59,18.30
2011,07,12,12,00,18.40
2011,07,12,12,02,18.40
2011,07,12,12,03,18.60
2011,07,12,12,04,18.70
2011,07,12,12,06,18.70
2011,07,12,12,07,18.60
2011,07,12,12,08,18.60
2011,07,12,12,09,18.50
2011,07,12,12,11,18.40
2011,07,12,12,12,18.40
2011,07,12,12,13,18.30
2011,07,12,12,14,18.30
2011,07,12,12,16,18.30
2011,07,12,12,17,18.30
2011,07,12,12,18,18.20
2011,07,12,12,19,18.10
2011,07,12,12,21,17.90
2011,07,12,12,22,17.80
2011,07,12,12,23,17.90
2011,07,12,12,24,18.00
2011,07,12,12,25,18.10
2011,07,12,12,27,18.10
2011,07,12,12,28,18.20
2011,07,12,12,29,18.30
2011,07,12,12,30,18.30
2011,07,12,12,32,18.30
2011,07,12,12,33,18.40
2011,07,12,12,34,18.40
2011,07,12,12,35,18.40
2011,07,12,12,36,18.40
2011,07,12,12,37,18.50
2011,07,12,12,38,18.40
2011,07,12,12,39,18.30
2011,07,12,12,41,18.20
2011,07,12,12,42,18.20
2011,07,12,12,43,18.20
2011,07,12,12,44,18.20
2011,07,12,12,45,18.30
2011,07,12,12,46,18.30
2011,07,12,12,47,18.30
2011,07,12,12,48,18.30
2011,07,12,12,50,18.30
2011,07,12,12,51,18.40
2011,07,12,12,52,18.50
2011,07,12,12,53,18.60
2011,07,12,12,55,18.60
2011,07,12,12,56,18.40
2011,07,12,12,57,18.30
2011,07,12,12,58,18.20
2011,07,12,12,59,18.20
2011,07,12,13,00,18.20
2011,07,12,13,01,18.20
2011,07,12,13,02,18.20
2011,07,12,13,03,18.30
2011,07,12,13,05,18.40
2011,07,12,13,06,18.50
2011,07,12,13,07,18.60
2011,07,12,13,08,18.70
2011,07,12,13,10,18.80
2011,07,12,13,11,18.80
2011,07,12,13,12,18.70
2011,07,12,13,13,18.70
2011,07,12,13,15,18.70
2011,07,12,13,16,18.70
2011,07,12,13,17,18.80
2011,07,12,13,18,18.80
2011,07,12,13,19,18.90
2011,07,12,13,20,18.90
2011,07,12,13,21,19.00
2011,07,12,13,22,19.10
2011,07,12,13,23,19.20
2011,07,12,13,25,19.30
2011,07,12,13,26,19.30
2011,07,12,13,27,19.30
2011,07,12,13,29,19.30
2011,07,12,13,30,19.40
2011,07,12,13,31,19.50
2011,07,12,13,32,19.60
2011,07,12,13,34,19.60
2011,07,12,13,35,19.70
2011,07,12,13,36,19.70
2011,07,12,13,37,19.70
2011,07,12,13,39,19.70
2011,07,12,13,40,19.70
2011,07,12,13,41,19.60
2011,07,12,13,42,19.40
2011,07,12,13,44,19.40
2011,07,12,13,45,19.30
2011,07,12,13,46,19.30
2011,07,12,13,47,19.20
2011,07,12,13,48,19.20
2011,07,12,13,49,19.20
2011,07,12,13,50,19.20
2011,07,12,13,51,19.20
2011,07,12,13,52,19.10
2011,07,12,13,54,19.00
2011,07,12,13,55,18.80
2011,07,12,13,56,18.70
2011,07,12,13,57,18.60
2011,07,12,13,59,18.60
2011,07,12,14,00,18.70
2011,07,12,14,01,18.70
2011,07,12,14,02,18.60
2011,07,12,14,04,18.60
2011,07,12,14,05,18.50
2011,07,12,14,06,18.50
2011,07,12,14,07,18.40
2011,07,12,14,09,18.40
2011,07,12,14,10,18.40
2011,07,12,14,11,18.40
2011,07,12,14,12,18.40
2011,07,12,14,14,18.30
2011,07,12,14,15,18.20
2011,07,12,14,16,18.10
2011,07,12,14,17,18.00
2011,07,12,14,18,17.90
2011,07,12,14,20,17.80
2011,07,12,14,21,17.70
2011,07,12,14,22,17.50
2011,07,12,14,24,17.40
2011,07,12,14,25,17.40
2011,07,12,14,26,17.30
2011,07,12,14,27,17.30
2011,07,12,14,29,17.30
2011,07,12,14,30,17.20
2011,07,12,14,31,17.20
2011,07,12,14,32,17.20
2011,07,12,14,33,17.10
2011,07,12,14,35,17.10
2011,07,12,14,36,17.10
2011,07,12,14,37,17.10
2011,07,12,14,39,17.00
2011,07,12,14,40,16.90
2011,07,12,14,41,16.80
2011,07,12,14,42,16.70
2011,07,12,14,44,16.70
2011,07,12,14,45,16.70
2011,07,12,14,46,16.80
2011,07,12,14,48,16.80
2011,07,12,14,49,17.00
2011,07,12,14,50,17.10
2011,07,12,14,51,17.10
2011,07,12,14,53,17.10
2011,07,12,14,54,17.10
2011,07,12,14,55,17.10
2011,07,12,14,56,17.10
2011,07,12,14,57,17.10
2011,07,12,14,59,17.10
2011,07,12,15,00,16.90
2011,07,12,15,01,16.90
2011,07,12,15,02,16.90
2011,07,12,15,04,17.00
2011,07,12,15,05,17.10
2011,07,12,15,06,17.20
2011,07,12,15,07,17.30
2011,07,12,15,08,17.40
2011,07,12,15,10,17.60
2011,07,12,15,11,17.70
2011,07,12,15,12,17.70
2011,07,12,15,13,17.70
2011,07,12,15,15,17.70
2011,07,12,15,16,17.80
2011,07,12,15,17,17.80
2011,07,12,15,18,17.80
2011,07,12,15,20,17.80
2011,07,12,15,21,17.60
2011,07,12,15,22,17.50
2011,07,12,15,23,17.40
2011,07,12,15,24,17.40
2011,07,12,15,25,17.30
2011,07,12,15,26,17.30
2011,07,12,15,27,17.30
2011,07,12,15,28,17.30
2011,07,12,15,30,17.30
2011,07,12,15,31,17.30
2011,07,12,15,32,17.30
2011,07,12,15,33,17.20
2011,07,12,15,35,17.10
2011,07,12,15,36,17.10
2011,07,12,15,37,16.90
2011,07,12,15,38,16.90
2011,07,12,15,39,16.80
2011,07,12,15,41,16.80
2011,07,12,15,42,16.80
2011,07,12,15,43,16.90
2011,07,12,15,44,16.90
2011,07,12,15,45,16.80
2011,07,12,15,47,16.80
2011,07,12,15,48,16.80
2011,07,12,15,49,16.90
2011,07,12,15,50,16.90
2011,07,12,15,52,17.00
2011,07,12,15,53,17.00
2011,07,12,15,54,17.00
2011,07,12,15,56,17.10
2011,07,12,15,57,17.20
2011,07,12,15,58,17.20
2011,07,12,15,59,17.20
2011,07,12,16,01,17.20
2011,07,12,16,02,17.30
2011,07,12,16,03,17.30
2011,07,12,16,04,17.30
2011,07,12,16,06,17.40
2011,07,12,16,07,17.60
2011,07,12,16,08,17.70
2011,07,12,16,09,17.70
2011,07,12,16,10,17.80
2011,07,12,16,12,17.80
2011,07,12,16,13,17.90
2011,07,12,16,14,17.90
2011,07,12,16,15,17.90
2011,07,12,16,16,17.90
2011,07,12,16,18,17.90
2011,07,12,16,19,17.90
2011,07,12,16,20,18.00
2011,07,12,16,21,18.10
2011,07,12,16,23,18.10
2011,07,12,16,24,18.20
2011,07,12,16,25,18.20
2011,07,12,16,27,18.20
2011,07,12,16,28,18.20
2011,07,12,16,29,18.30
2011,07,12,16,30,18.40
2011,07,12,16,31,18.40
2011,07,12,16,33,18.50
2011,07,12,16,34,18.60
2011,07,12,16,35,18.70
2011,07,12,16,36,18.70
2011,07,12,16,37,18.70
2011,07,12,16,39,18.60
2011,07,12,16,40,18.60
2011,07,12,16,41,18.60
2011,07,12,16,43,18.60
2011,07,12,16,44,18.60
2011,07,12,16,45,18.40
2011,07,12,16,46,18.40
2011,07,12,16,47,18.60
2011,07,12,16,49,18.70
2011,07,12,16,50,18.70
2011,07,12,16,51,18.80
2011,07,12,16,52,18.70
2011,07,12,16,54,18.70
2011,07,12,16,55,18.60
2011,07,12,16,56,18.60
2011,07,12,16,57,18.50
2011,07,12,16,59,18.40
2011,07,12,17,00,18.40
2011,07,12,17,01,18.40
2011,07,12,17,02,18.30
2011,07,12,17,04,18.30
2011,07,12,17,05,18.30
2011,07,12,17,06,18.20
2011,07,12,17,07,18.20
2011,07,12,17,08,18.20
2011,07,12,17,10,18.20
2011,07,12,17,11,18.20
2011,07,12,17,12,18.10
2011,07,12,17,13,18.10
2011,07,12,17,14,17.90
2011,07,12,17,15,17.90
2011,07,12,17,17,17.90
2011,07,12,17,18,17.90
2011,07,12,17,19,17.90
2011,07,12,17,21,17.80
2011,07,12,17,22,17.80
2011,07,12,17,23,17.70
2011,07,12,17,24,17.70
2011,07,12,17,26,17.70
2011,07,12,17,27,17.70
2011,07,12,17,28,17.70
2011,07,12,17,29,17.70
2011,07,12,17,30,17.70
2011,07,12,17,32,17.70
2011,07,12,17,33,17.70
2011,07,12,17,34,17.60
2011,07,12,17,35,17.60
2011,07,12,17,36,17.50
2011,07,12,17,38,17.60
2011,07,12,17,39,17.60
2011,07,12,17,40,17.70
2011,07,12,17,41,17.70
2011,07,12,17,43,17.80
2011,07,12,17,44,17.90
2011,07,12,17,45,17.80
2011,07,12,17,46,17.80
2011,07,12,17,48,17.70
2011,07,12,17,49,17.60
2011,07,12,17,50,17.50
2011,07,12,17,51,17.40
2011,07,12,17,52,17.40
2011,07,12,17,54,17.40
2011,07,12,17,55,17.40
2011,07,12,17,56,17.40
2011,07,12,17,57,17.40
2011,07,12,17,58,17.50
2011,07,12,17,59,17.50
2011,07,12,18,00,17.60
2011,07,12,18,01,17.60
2011,07,12,18,02,17.60
2011,07,12,18,03,17.60
2011,07,12,18,05,17.60
2011,07,12,18,06,17.60
2011,07,12,18,07,17.50
2011,07,12,18,08,17.50
2011,07,12,18,09,17.40
2011,07,12,18,11,17.40
2011,07,12,18,12,17.40
2011,07,12,18,13,17.40
2011,07,12,18,14,17.40
2011,07,12,18,16,17.40
2011,07,12,18,17,17.40
2011,07,12,18,18,17.40
2011,07,12,18,19,17.40
2011,07,12,18,20,17.40
2011,07,12,18,22,17.40
2011,07,12,18,23,17.40
2011,07,12,18,24,17.50
2011,07,12,18,25,17.60
2011,07,12,18,27,17.60
2011,07,12,18,28,17.60
2011,07,12,18,29,17.60
2011,07,12,18,30,17.60
2011,07,12,18,32,17.60
2011,07,12,18,33,17.60
2011,07,12,18,34,17.60
2011,07,12,18,35,17.70
2011,07,12,18,36,17.70
2011,07,12,18,38,17.70
2011,07,12,18,39,17.70
2011,07,12,18,40,17.70
2011,07,12,18,41,17.70
2011,07,12,18,42,17.70
2011,07,12,18,44,17.60
2011,07,12,18,45,17.60
2011,07,12,18,46,17.60
2011,07,12,18,47,17.50
2011,07,12,18,48,17.50
2011,07,12,18,50,17.50
2011,07,12,18,51,17.50
2011,07,12,18,52,17.50
2011,07,12,18,53,17.50
2011,07,12,18,54,17.50
2011,07,12,18,56,17.50
2011,07,12,18,57,17.50
2011,07,12,18,58,17.50
2011,07,12,18,59,17.40
2011,07,12,19,01,17.40
2011,07,12,19,02,17.40
2011,07,12,19,03,17.30
2011,07,12,19,05,17.30
2011,07,12,19,06,17.20
2011,07,12,19,07,17.20
2011,07,12,19,08,17.10
2011,07,12,19,09,17.10
2011,07,12,19,10,17.10
2011,07,12,19,11,17.10
2011,07,12,19,12,17.00
2011,07,12,19,13,17.00
2011,07,12,19,15,17.00
2011,07,12,19,16,16.90
2011,07,12,19,17,16.90
2011,07,12,19,18,16.90
2011,07,12,19,20,16.90
2011,07,12,19,21,16.90
2011,07,12,19,22,16.90
2011,07,12,19,23,16.90
2011,07,12,19,25,16.90
2011,07,12,19,26,16.90
2011,07,12,19,27,16.90
2011,07,12,19,29,16.90
2011,07,12,19,30,16.80
2011,07,12,19,31,16.80
2011,07,12,19,32,16.80
2011,07,12,19,33,16.80
2011,07,12,19,34,16.80
2011,07,12,19,35,16.80
2011,07,12,19,36,16.80
2011,07,12,19,37,16.80
2011,07,12,19,38,16.80
2011,07,12,19,39,16.80
2011,07,12,19,40,16.80
2011,07,12,19,41,16.80
2011,07,12,19,42,16.80
2011,07,12,19,43,16.80
2011,07,12,19,44,16.80
2011,07,12,19,45,16.80
2011,07,12,19,46,16.80
2011,07,12,19,47,16.70
2011,07,12,19,48,16.80
2011,07,12,19,49,16.70
2011,07,12,19,50,16.70
2011,07,12,19,51,16.70
2011,07,12,19,52,16.70
2011,07,12,19,53,16.70
2011,07,12,19,54,16.60
2011,07,12,19,55,16.60
2011,07,12,19,56,16.50
2011,07,12,19,57,16.50
2011,07,12,19,58,16.40
2011,07,12,19,59,16.40
2011,07,12,20,00,16.40
2011,07,12,20,01,16.30
2011,07,12,20,02,16.30
2011,07,12,20,03,16.30
2011,07,12,20,04,16.20
2011,07,12,20,05,16.20
2011,07,12,20,06,16.20
2011,07,12,20,07,16.20
2011,07,12,20,08,16.20
2011,07,12,20,09,16.20
2011,07,12,20,10,16.10
2011,07,12,20,11,16.10
2011,07,12,20,12,16.10
2011,07,12,20,13,16.10
2011,07,12,20,14,16.10
2011,07,12,20,15,16.00
2011,07,12,20,16,16.00
2011,07,12,20,17,16.00
2011,07,12,20,18,16.00
2011,07,12,20,19,16.00
2011,07,12,20,20,16.00
2011,07,12,20,22,15.90
2011,07,12,20,23,15.90
2011,07,12,20,24,15.90
2011,07,12,20,25,15.90
2011,07,12,20,27,15.90
2011,07,12,20,28,15.90
2011,07,12,20,29,15.90
2011,07,12,20,30,15.90
2011,07,12,20,32,15.80
2011,07,12,20,33,15.80
2011,07,12,20,34,15.80
2011,07,12,20,35,15.80
2011,07,12,20,37,15.70